Вернуться в каталог

SL-8 DEB *

АктивенLEO
NORAD 14808·DEBRIS·🇷🇺 Russia

Запущен Jul 1, 1980 с Plesetsk Cosmodrome

Loading…

Ближайшие Пролёты (ближайшие 24 часа)

TLE

СвежийSource: Space-Track

Эпоха: Sep 14, 2026, 00:25 UTC

1 14808U 80056C   26257.01788205  .00000737  00000-0  19549-3 0  9991
2 14808  74.0345  98.6979 0012102  34.6569 117.3805 14.50415441241824

Отслеживайте SL-8 DEB * в реальном времени с AllMySat

Download on the App Store